DW0935 Weather Reports


time (UTC)temp
C
wind
direction
speed
KPH
gust
KPH
rain 1hr
cm
rain 24hr
cm
rain mn
cm
humidity
%
barometer
mb
20260507140055 9 291 14.5 24.1 0.00 0.00 0.00 96 1008.5
20260507134602 9 330 16.1 25.7 0.00 0.00 0.00 96 1008.0
20260507133056 9 343 11.3 20.9 0.00 0.00 0.00 97 1007.9
20260507131553 9 331 12.9 24.1 0.00 0.00 0.00 97 1008.1
20260507130052 9 331 16.1 22.5 0.00 0.00 0.00 97 1008.3
20260507124551 9 311 20.9 29.0 0.00 0.00 0.00 96 1008.1
20260507123049 9 327 17.7 29.0 0.00 0.00 0.00 97 1007.9
20260507121546 9 339 17.7 27.4 0.00 0.00 0.00 98 1007.8
20260507120053 9 345 14.5 24.1 0.00 0.00 0.00 98 1008.1
20260507114545 9 347 17.7 25.7 0.00 0.00 0.00 98 1008.4
20260507113048 9 322 12.9 24.1 0.00 0.00 0.00 98 1007.7
20260507111540 10 322 17.7 33.8 0.00 0.00 0.00 98 1007.7
20260507110038 11 296 17.7 29.0 0.00 0.00 0.00 99 1007.5
20260507104536 11 308 9.7 17.7 0.00 0.00 0.00 99 1006.8
20260507103036 11 272 9.7 16.1 0.00 0.00 0.00 99 1006.7
20260507101535 11 260 8.0 17.7 0.00 0.00 0.00 99 1006.9
20260507100037 11 262 19.3 30.6 0.00 0.00 0.00 99 1007.3
20260507094534 11 252 9.7 17.7 0.00 0.00 0.00 99 1006.4
20260507093033 11 273 11.3 17.7 0.00 0.00 0.00 99 1006.5
20260507091531 10 253 16.1 25.7 0.00 0.00 0.00 99 1006.7
20260507090029 10 252 11.3 24.1 0.00 0.00 0.00 99 1006.5
20260507084528 10 238 12.9 27.4 0.00 0.00 0.00 99 1006.0
20260507083025 10 247 12.9 25.7 0.00 0.00 0.00 99 1006.3
20260507081531 11 259 14.5 25.7 0.00 0.00 0.00 99 1006.5
20260507080022 11 256 17.7 27.4 0.00 0.00 0.00 99 1006.4
20260507074528 11 220 16.1 25.7 0.00 0.00 0.00 99 1006.6
20260507073137 11 220 17.7 30.6 0.00 0.00 0.00 99 1007.1
20260507071517 11 231 22.5 33.8 0.00 0.00 0.00 98 1007.2
20260507070014 11 258 25.7 37.0 0.00 0.00 0.00 98 1007.2
20260507064511 11 266 17.7 35.4 0.00 0.00 0.00 98 1007.2
20260507063008 11 181 19.3 35.4 0.00 0.00 0.00 98 1006.9
20260507061509 11 227 19.3 35.4 0.00 0.00 0.00 98 1006.9
20260507060005 11 247 20.9 38.6 0.00 0.00 0.00 98 1007.1
20260507054501 11 249 24.1 38.6 0.00 0.00 0.00 98 1007.4
20260507053059 11 250 19.3 43.5 0.00 0.00 0.00 98 1007.7
20260507051556 11 235 25.7 41.8 0.00 0.00 0.00 98 1007.7
20260507050057 11 216 27.4 48.3 0.00 0.00 0.00 98 1007.9
20260507044552 11 238 22.5 38.6 0.00 0.00 0.00 98 1008.1
20260507043049 12 252 24.1 37.0 0.00 0.00 0.00 98 1008.2
20260507041547 12 231 24.1 46.7 0.00 0.00 0.00 98 1008.4
20260507040041 12 212 24.1 46.7 0.00 0.00 0.00 98 1008.4
20260507034546 12 214 24.1 46.7 0.00 0.00 0.00 98 1008.6
20260507033057 12 206 22.5 45.1 0.00 0.00 0.00 98 1008.6
20260507031538 12 207 24.1 38.6 0.00 0.00 0.00 98 1008.7
20260507030038 12 212 27.4 49.9 0.00 0.00 0.00 98 1008.7
20260507024541 12 241 27.4 57.9 0.00 0.00 0.00 98 1008.8
20260507023034 12 217 27.4 45.1 0.00 0.00 0.00 98 1009.0
20260507021533 12 231 17.7 45.1 0.00 0.00 0.00 97 1009.0
20260507020033 12 211 32.2 57.9 0.00 0.00 0.00 97 1009.4
20260507014531 12 227 25.7 57.9 0.00 0.00 0.00 97 1009.7
20260507013036 12 203 37.0 53.1 0.00 0.00 0.00 98 1009.4
20260507011533 11 240 29.0 54.7 0.00 0.00 0.00 97 1009.6
20260507010130 12 183 30.6 49.9 0.00 0.00 0.00 97 1009.5
20260507004529 12 197 32.2 48.3 0.00 0.00 0.00 97 1009.6
20260507003027 12 185 27.4 49.9 0.00 0.00 0.00 97 1009.5
20260507001529 11 180 29.0 51.5 0.00 0.00 0.00 96 1009.9
20260507000028 12 179 32.2 49.9 0.00 0.00 0.00 96 1010.2
20260506234542 12 200 30.6 43.5 0.00 0.00 0.00 96 1010.3
20260506233023 12 188 27.4 41.8 0.00 0.00 0.00 95 1010.1
20260506231521 11 203 24.1 46.7 0.00 0.00 0.00 94 1010.3
20260506230020 12 183 29.0 46.7 0.00 0.00 0.00 92 1010.5
20260506224526 12 192 27.4 45.1 0.00 0.00 0.00 92 1010.7
20260506223018 12 172 24.1 43.5 0.00 0.00 0.00 92 1010.7
20260506221517 12 175 27.4 43.5 0.00 0.00 0.00 91 1010.7
20260506220029 12 193 27.4 43.5 0.00 0.00 0.00 91 1010.8
20260506214515 12 191 29.0 46.7 0.00 0.00 0.00 91 1010.8
20260506213012 12 182 27.4 43.5 0.00 0.00 0.00 91 1010.9
20260506211518 12 176 24.1 45.1 0.00 0.00 0.00 90 1011.1
20260506210010 12 170 29.0 43.5 0.00 0.00 0.00 90 1011.3
20260506204509 13 182 29.0 49.9 0.00 0.00 0.00 90 1011.4
20260506203007 12 219 25.7 51.5 0.00 0.00 0.00 90 1011.2
20260506201506 12 174 22.5 43.5 0.00 0.00 0.00 90 1011.4
20260506200005 12 138 29.0 48.3 0.00 0.00 0.00 90 1011.7
20260506194504 12 175 27.4 41.8 0.00 0.00 0.00 91 1011.7
20260506193002 12 193 30.6 46.7 0.00 0.00 0.00 89 1011.7
20260506191501 12 204 24.1 46.7 0.00 0.00 0.00 90 1012.0
20260506190059 12 184 32.2 51.5 0.00 0.00 0.00 89 1012.3
20260506184557 13 182 33.8 53.1 0.00 0.00 0.00 88 1012.5
20260506183101 13 182 32.2 56.3 0.00 0.00 0.00 87 1012.8
20260506181613 13 178 35.4 56.3 0.00 0.00 0.00 87 1013.1
20260506180052 14 212 30.6 49.9 0.00 0.00 0.00 86 1013.0
20260506174551 15 191 30.6 56.3 0.00 0.00 0.00 86 1013.1
20260506173117 13 195 30.6 53.1 0.00 0.00 0.00 88 1013.4
20260506171554 13 164 33.8 57.9 0.00 0.00 0.00 87 1013.4
20260506170054 14 223 32.2 51.5 0.00 0.00 0.00 86 1013.8
20260506164545 14 228 29.0 54.7 0.00 0.00 0.00 86 1014.0
20260506163043 14 160 27.4 53.1 0.00 0.00 0.00 85 1014.1
20260506161541 14 187 30.6 49.9 0.00 0.00 0.00 87 1014.3
20260506160046 13 175 35.4 61.2 0.00 0.00 0.00 87 1014.6
20260506154540 13 209 30.6 51.5 0.00 0.00 0.00 88 1014.7
20260506153038 13 200 29.0 53.1 0.00 0.00 0.00 87 1014.5
20260506151539 13 193 32.2 54.7 0.00 0.00 0.00 87 1014.5
20260506150037 13 197 35.4 56.3 0.00 0.00 0.00 87 1014.4
20260506144537 13 193 30.6 49.9 0.00 0.00 0.00 86 1014.5
20260506143036 13 202 37.0 57.9 0.00 0.00 0.00 88 1014.8
20260506141533 13 223 32.2 54.7 0.00 0.00 0.00 87 1014.8